Current weather by "City, St" or "zip code"  
 

Current Conditions: Des Moines International Airport, IA

Overcast


34.0 F

Last Updated on Oct 23 2020, 8:54 pm CDT
Humidity: 70%
Wind Speed: N 19.6 G 31.1 mph
Barometer 30.36 in
Dewpoint: 25.0 F
Visibility: 10.00 mi
Precip: --
Heat Index: NA
Wind Chill: 23 F
Current conditions at:

Des Moines International Airport, IA (KDSM)

Lat: 41.53399 Lon: 93.65307

Local Radar Image active severe weather and emergency alerts image image weather storm and storm spotter reports image weather observation monitoring service image
Local
Radar
Active
Alerts
Storm Reports Obs
Monitoring

Sign-up For Email & Text Message Weather Alert Notification Services



Advertise Here

Observation History for Des Moines International Airport, IA


Time Wind
(mph)
Vis
(mi)
Weather Precip (in) Temperature (F) Relative
Humidity
Wind
Chill
(F)
Heat
Index
(F)
Pressure
Air Dwpt altimeter
(in)
sea level
(mb)
Rmks
8:54 pm CDT N 19.6 G 31.1 10.00 Overcast -- 34.0 25.0 70% 23 NA 30.36 1028.9
7:54 pm CDT N 19.6 G 29.9 10.00 Overcast -- 36.0 27.0 70% 25 NA 30.34 1028.4
6:54 pm CDT N 17.3 G 23.0 10.00 Overcast -- 36.0 28.0 73% 26 NA 30.34 1028.3
5:54 pm CDT N 16.1 G 28.8 10.00 Overcast -- 37.0 28.0 70% 28 NA 30.33 1027.9
4:54 pm CDT NW 18.4 G 28.8 10.00 Overcast -- 37.0 28.9 73% 27 NA 30.32 1027.5
3:54 pm CDT NW 16.1 10.00 Overcast -- 38.0 30.0 73% 29 NA 30.31 1027.1
2:54 pm CDT NW 13.8 G 21.9 10.00 Overcast -- 40.0 32.0 73% 32 NA 30.29 1026.6
1:54 pm CDT NW 11.5 G 23.0 10.00 Overcast -- 40.0 30.9 70% 33 NA 30.29 1026.4
12:54 pm CDT N 12.7 G 31.1 10.00 Overcast -- 39.0 32.0 76% 31 NA 30.29 1026.4
11:54 am CDT NW 17.3 G 26.5 10.00 Overcast -- 39.0 32.0 76% 30 NA 30.27 1025.8
10:54 am CDT N 16.1 G 29.9 10.00 Overcast -- 37.0 30.9 79% 28 NA 30.25 1025.1
9:54 am CDT N 18.4 G 28.8 10.00 Overcast -- 37.0 33.1 86% 27 NA 30.21 1023.6
8:54 am CDT N 15.0 G 28.8 10.00 Overcast -- 36.0 33.1 89% 27 NA 30.19 1023.0
7:54 am CDT NW 17.3 G 29.9 10.00 Overcast -- 36.0 32.0 86% 26 NA 30.15 1021.6
6:54 am CDT N 17.3 G 26.5 10.00 Overcast -- 36.0 33.1 89% 26 NA 30.11 1020.4
5:54 am CDT N 16.1 G 28.8 10.00 Overcast -- 36.0 33.1 89% 26 NA 30.09 1019.4
4:54 am CDT N 19.6 G 33.4 10.00 Overcast 00.03 37.0 33.1 86% 27 NA 30.06 1018.2
3:54 am CDT N 15.0 G 29.9 4.00 Rain Fog/Mist -- 36.0 34.0 93% 27 NA 30.03 1017.2
2:54 am CDT N 13.8 G 25.3 9.00 Light Rain 00.03 36.0 34.0 93% 27 NA 30.05 1017.9
1:54 am CDT NW 15.0 G 27.6 10.00 Overcast 00.02 37.0 34.0 89% 28 NA 30.02 1016.8
12:54 am CDT N 13.8 G 25.3 10.00 Rain 00.11 37.0 35.1 93% 28 NA 29.99 1016.1
11:54 pm CDT N 15.0 G 21.9 5.00 Rain Fog/Mist 00.06 37.0 35.1 93% 28 NA 29.97 1015.4
10:54 pm CDT NW 12.7 9.00 Light Rain 00.11 38.0 36.0 93% 30 NA 30.00 1016.2
9:54 pm CDT N 12.7 G 23.0 5.00 Thunderstorm Rain Fog/Mist 00.16 39.0 37.0 93% 31 NA 29.92 1013.5

Regional Weather Observation


Ankeny Regional Airport, IA (KIKV)

Overcast
34.0 F

Des Moines International Airport, IA (KDSM)

Overcast
34.0 F

Perry Municipal Airport, IA (KPRO)

Overcast
33.0 F

Boone Municipal, IA (KBNW)

Overcast
32.0 F

Newton Municipal Airport - Earl Johnson Field, IA (KTNU)

Overcast
36.0 F

Osceola Municipal Airport, IA (KI75)

Overcast
35.0 F